カタログに戻る

LEGION 2

運用中科学SSO
NORAD 59626·PAYLOAD·🇺🇸 United States

打ち上げ May 2, 2024 から Vandenberg Space Force Base

Loading…

次のパス (今後24時間)

TLE

最新Source: Space-Track

元期: Sep 14, 2026, 12:10 UTC

1 59626U 24081B   26257.50762356  .00002892  00000-0  14884-3 0  9998
2 59626  97.4955 334.5077 0012086  33.4106 326.7887 15.17175726131088

AllMySatでLEGION 2をリアルタイム追跡

Download on the App Store